Hourly Weather Klenovaya Gora

Today, 21 April, Wednesday

Time Temperature Precipitation Wind Pressure Humidity
00:00 +1°C° 0 mm 5 mps 754 mmHg 47%
01:00 +1°C° 0 mm 5 mps 754 mmHg 47%
02:00 +1°C° 0 mm 6 mps 754 mmHg 47%
03:00 +1°C° 0 mm 6 mps 753 mmHg 47%
04:00 0°C° 0 mm 7 mps 753 mmHg 48%
05:00 0°C° 0 mm 7 mps 753 mmHg 48%
06:00 0°C° 0 mm 7 mps 752 mmHg 48%
07:00 0°C° 0.2 mm 7 mps 752 mmHg 50%
08:00 0°C° 0.2 mm 8 mps 752 mmHg 53%
09:00 0°C° 0.2 mm 8 mps 752 mmHg 55%
10:00 +1°C° 0.1 mm 8 mps 752 mmHg 54%
11:00 +1°C° 0.1 mm 8 mps 751 mmHg 54%
12:00 +1°C° 0.1 mm 8 mps 751 mmHg 53%
13:00 +1°C° 0.4 mm 8 mps 751 mmHg 58%
14:00 0°C° 0.4 mm 8 mps 751 mmHg 62%
15:00 0°C° 0.4 mm 8 mps 750 mmHg 66%
16:00 0°C° 0.9 mm 8 mps 750 mmHg 75%
17:00 -1°C° 0.9 mm 7 mps 750 mmHg 84%
18:00 -2°C° 0.9 mm 7 mps 750 mmHg 92%
19:00 -2°C° 0.4 mm 7 mps 750 mmHg 93%
20:00 -2°C° 0.4 mm 7 mps 750 mmHg 93%
21:00 -1°C° 0.4 mm 7 mps 750 mmHg 94%
22:00 -1°C° 0.1 mm 7 mps 749 mmHg 94%
23:00 -1°C° 0.1 mm 7 mps 749 mmHg 94%

Tomorrow, 22 April, Thursday

Time Temperature Precipitation Wind Pressure Humidity
00:00 +1°C° 0.1 mm 6 mps 749 mmHg 94%
01:00 +1°C° 0 mm 6 mps 749 mmHg 94%
02:00 +1°C° 0 mm 6 mps 749 mmHg 95%
03:00 +1°C° 0 mm 6 mps 749 mmHg 96%
04:00 +1°C° 0.1 mm 6 mps 750 mmHg 95%
05:00 +1°C° 0.1 mm 5 mps 750 mmHg 95%
06:00 +2°C° 0.1 mm 5 mps 751 mmHg 94%
07:00 +2°C° 0 mm 5 mps 751 mmHg 93%
08:00 +4°C° 0 mm 4 mps 751 mmHg 91%
09:00 +4°C° 0 mm 4 mps 752 mmHg 90%
10:00 +6°C° 0 mm 4 mps 752 mmHg 84%
11:00 +7°C° 0 mm 5 mps 752 mmHg 78%
12:00 +9°C° 0 mm 5 mps 752 mmHg 72%
13:00 +9°C° 0 mm 5 mps 752 mmHg 75%
14:00 +8°C° 0 mm 5 mps 752 mmHg 78%
15:00 +8°C° 0 mm 5 mps 752 mmHg 81%
16:00 +8°C° 0 mm 5 mps 752 mmHg 82%
17:00 +7°C° 0 mm 5 mps 752 mmHg 83%
18:00 +7°C° 0 mm 5 mps 752 mmHg 84%
19:00 +6°C° 0.1 mm 4 mps 752 mmHg 87%
20:00 +6°C° 0.1 mm 4 mps 752 mmHg 90%
21:00 +5°C° 0.1 mm 4 mps 753 mmHg 93%
22:00 +5°C° 0 mm 3 mps 753 mmHg 93%
23:00 +5°C° 0 mm 3 mps 753 mmHg 93%

Day after tomorrow, 23 April, Friday

Time Temperature Precipitation Wind Pressure Humidity
00:00 +5°C° 0 mm 3 mps 753 mmHg 94%
01:00 +5°C° 0 mm 2 mps 753 mmHg 95%
02:00 +4°C° 0 mm 2 mps 753 mmHg 96%
03:00 +3°C° 0 mm 2 mps 753 mmHg 97%
04:00 +4°C° 0 mm 2 mps 753 mmHg 96%
05:00 +4°C° 0 mm 2 mps 753 mmHg 95%
06:00 +4°C° 0 mm 2 mps 753 mmHg 95%
07:00 +6°C° 0 mm 2 mps 754 mmHg 88%
08:00 +7°C° 0 mm 2 mps 754 mmHg 82%
09:00 +9°C° 0 mm 3 mps 754 mmHg 75%
10:00 +10°C° 0 mm 3 mps 754 mmHg 69%
11:00 +12°C° 0 mm 3 mps 753 mmHg 63%
12:00 +13°C° 0 mm 3 mps 753 mmHg 57%
13:00 +13°C° 0 mm 3 mps 753 mmHg 57%
14:00 +13°C° 0 mm 3 mps 753 mmHg 56%
15:00 +13°C° 0 mm 3 mps 753 mmHg 55%
16:00 +12°C° 0 mm 3 mps 753 mmHg 60%
17:00 +12°C° 0 mm 3 mps 753 mmHg 64%
18:00 +11°C° 0 mm 3 mps 753 mmHg 68%
19:00 +10°C° 0 mm 3 mps 752 mmHg 72%
20:00 +9°C° 0 mm 3 mps 752 mmHg 76%
21:00 +8°C° 0 mm 3 mps 752 mmHg 80%
22:00 +7°C° 0 mm 3 mps 752 mmHg 82%
23:00 +7°C° 0 mm 3 mps 752 mmHg 85%

24 April, Saturday

Time Temperature Precipitation Wind Pressure Humidity
00:00 +5°C° 0 mm 3 mps 751 mmHg 87%
01:00 +5°C° 0 mm 3 mps 751 mmHg 89%
02:00 +4°C° 0 mm 3 mps 751 mmHg 91%
03:00 +3°C° 0 mm 3 mps 750 mmHg 93%
04:00 +4°C° 0 mm 3 mps 750 mmHg 91%
05:00 +4°C° 0 mm 3 mps 750 mmHg 90%
06:00 +4°C° 0 mm 3 mps 749 mmHg 88%
07:00 +5°C° 0 mm 3 mps 749 mmHg 83%
08:00 +7°C° 0 mm 4 mps 749 mmHg 77%
09:00 +8°C° 0 mm 4 mps 748 mmHg 72%
10:00 +8°C° 0 mm 4 mps 748 mmHg 73%
11:00 +8°C° 0 mm 4 mps 747 mmHg 74%
12:00 +8°C° 0 mm 4 mps 747 mmHg 75%
13:00 +8°C° 0 mm 4 mps 747 mmHg 77%
14:00 +7°C° 0 mm 4 mps 746 mmHg 79%
15:00 +8°C° 0 mm 3 mps 746 mmHg 81%
16:00 +8°C° 0 mm 3 mps 746 mmHg 83%
17:00 +7°C° 0 mm 3 mps 745 mmHg 85%
18:00 +7°C° 0 mm 3 mps 745 mmHg 88%
19:00 +7°C° 0 mm 3 mps 745 mmHg 89%
20:00 +5°C° 0 mm 3 mps 744 mmHg 91%
21:00 +5°C° 0 mm 3 mps 744 mmHg 93%
22:00 +5°C° 0 mm 3 mps 743 mmHg 94%
23:00 +4°C° 0 mm 3 mps 743 mmHg 95%

25 April, Sunday

Time Temperature Precipitation Wind Pressure Humidity
00:00 +4°C° 0 mm 3 mps 742 mmHg 95%
01:00 +4°C° 0.3 mm 4 mps 742 mmHg 95%
02:00 +4°C° 0.3 mm 4 mps 741 mmHg 95%
03:00 +4°C° 0.3 mm 4 mps 740 mmHg 94%
04:00 +4°C° 1.2 mm 4 mps 740 mmHg 92%
05:00 +4°C° 1.2 mm 4 mps 741 mmHg 91%
06:00 +4°C° 1.2 mm 4 mps 741 mmHg 89%
07:00 +5°C° 0 mm 5 mps 741 mmHg 80%
08:00 +5°C° 0 mm 5 mps 741 mmHg 71%
09:00 +5°C° 0 mm 6 mps 741 mmHg 62%
10:00 +7°C° 0 mm 6 mps 742 mmHg 55%
11:00 +8°C° 0 mm 6 mps 742 mmHg 49%
12:00 +9°C° 0 mm 6 mps 742 mmHg 42%
13:00 +9°C° 0 mm 6 mps 742 mmHg 41%
14:00 +10°C° 0 mm 6 mps 743 mmHg 39%
15:00 +10°C° 0 mm 6 mps 743 mmHg 38%
16:00 +9°C° 0 mm 5 mps 743 mmHg 43%
17:00 +8°C° 0 mm 5 mps 743 mmHg 47%
18:00 +8°C° 0 mm 4 mps 743 mmHg 52%
19:00 +6°C° 0 mm 4 mps 744 mmHg 58%
20:00 +5°C° 0 mm 3 mps 744 mmHg 64%
21:00 +4°C° 0 mm 2 mps 744 mmHg 69%
22:00 +4°C° 0 mm 2 mps 744 mmHg 72%
23:00 +3°C° 0 mm 2 mps 745 mmHg 74%

26 April, Monday

Time Temperature Precipitation Wind Pressure Humidity
00:00 +3°C° 0 mm 2 mps 745 mmHg 77%
01:00 +2°C° 0 mm 2 mps 745 mmHg 78%
02:00 +3°C° 0 mm 1 mps 745 mmHg 79%
03:00 +3°C° 0 mm 1 mps 745 mmHg 80%
04:00 +3°C° 0 mm 1 mps 745 mmHg 78%
05:00 +4°C° 0 mm 1 mps 745 mmHg 75%
06:00 +5°C° 0 mm 1 mps 745 mmHg 73%
07:00 +6°C° 0.1 mm 2 mps 745 mmHg 67%
08:00 +7°C° 0.1 mm 3 mps 744 mmHg 61%
09:00 +8°C° 0.1 mm 4 mps 744 mmHg 55%
10:00 +8°C° 0.3 mm 4 mps 744 mmHg 51%
11:00 +10°C° 0.3 mm 4 mps 744 mmHg 48%
12:00 +11°C° 0.3 mm 4 mps 744 mmHg 44%
13:00 +11°C° 0.1 mm 4 mps 743 mmHg 43%
14:00 +11°C° 0.1 mm 4 mps 743 mmHg 42%
15:00 +10°C° 0.1 mm 5 mps 743 mmHg 42%
16:00 +10°C° 0.2 mm 4 mps 743 mmHg 48%
17:00 +8°C° 0.2 mm 4 mps 743 mmHg 55%
18:00 +8°C° 0.2 mm 3 mps 743 mmHg 61%
19:00 +7°C° 0.1 mm 3 mps 743 mmHg 68%
20:00 +5°C° 0.1 mm 2 mps 743 mmHg 74%
21:00 +4°C° 0.1 mm 2 mps 743 mmHg 81%
22:00 +3°C° 0 mm 2 mps 742 mmHg 81%
23:00 +3°C° 0 mm 2 mps 742 mmHg 81%
Show more

We Need Your Consent

Meteoprog and our Service Providers may store and access personal data such as cookies, device identifiers or other similar technologies on your device and process such data to personalise content and ads, as well as provide social media features and to analyse the traffic.

  • Store and/or access information on your device

    Cookies, device identifiers or other information can be stored or accessed on your device for the purposes indicated above.

  • Personalised ads and content, ad and content measurement, audience insights, and products development

    Ads and content can be personalised based on a profile. More data can be added to better personalise ads and content. Ad and content performance can be measured. Insights about the audience who saw the ads and content can be derived. Such data can be used to develop or improve user’s experience, systems and software.

By clicking ‘I Agree’ you will allow the use of indicated cookies, device identifiers, web beacons or other similar technologies. Your settings can be changed in the browser on your device.

For certain purposes, legitimate interests may be relied on, rather than consent. You can read more about this in our Privacy and Cookie Policy.